Back to catalog

STARLINK-33582

AliveCommunicationsVLEO
NORAD 62783·PAYLOAD·🇺🇸 United States

Launched Jan 21, 2025 from Vandenberg Space Force Base

Loading…

Next Passes (next 24 hours)

TLE

FreshSource: CelesTrak SupGP

Epoch: Sep 14, 2026, 22:25 UTC

1 62783C 25015AB  26257.93451389  .00186800  00000+0  21265-2 0  2570
2 62783  53.1442 147.7916 0006229 158.8436 203.2387 15.61519942    15

Track STARLINK-33582 in real time with AllMySat

Download on the App Store